• en Belgique
  • Liste des pays
  • À 7 jours
  • Température de l'eau
  • Carte satellitaire
  • Carte météo
  • Widgets météo
  • user-avatar
    Se connecter

    Météo par heure à Polyana

    Ce jour, 24 Septembre, Lundi

    Heure Température Précipitation Vent Pression Humidité
    00:00 +7°C° 0 mm 3 m/s 740 mmHg 93%
    01:00 +7°C° 0 mm 3 m/s 740 mmHg 94%
    02:00 +7°C° 0 mm 3 m/s 740 mmHg 95%
    03:00 +6°C° 0 mm 2 m/s 740 mmHg 96%
    04:00 +6°C° 0 mm 2 m/s 740 mmHg 96%
    05:00 +6°C° 0 mm 2 m/s 740 mmHg 97%
    06:00 +7°C° 0 mm 2 m/s 740 mmHg 94%
    07:00 +7°C° 0 mm 2 m/s 740 mmHg 91%
    08:00 +8°C° 0 mm 2 m/s 740 mmHg 88%
    09:00 +9°C° 0 mm 2 m/s 740 mmHg 83%
    10:00 +10°C° 0 mm 2 m/s 740 mmHg 77%
    11:00 +12°C° 0 mm 2 m/s 739 mmHg 72%
    12:00 +12°C° 0.4 mm 2 m/s 739 mmHg 76%
    13:00 +12°C° 0.4 mm 2 m/s 739 mmHg 80%
    14:00 +10°C° 0.4 mm 2 m/s 738 mmHg 85%
    15:00 +10°C° 1 mm 2 m/s 738 mmHg 88%
    16:00 +9°C° 1 mm 2 m/s 737 mmHg 91%
    17:00 +8°C° 1 mm 2 m/s 736 mmHg 95%
    18:00 +8°C° 1.1 mm 2 m/s 736 mmHg 95%
    19:00 +8°C° 1.1 mm 3 m/s 735 mmHg 95%
    20:00 +8°C° 1.1 mm 3 m/s 735 mmHg 96%
    21:00 +8°C° 1.1 mm 3 m/s 734 mmHg 95%
    22:00 +7°C° 1.1 mm 4 m/s 734 mmHg 95%
    23:00 +6°C° 1.1 mm 4 m/s 733 mmHg 94%

    Demain, 25 Septembre, Mardi

    Heure Température Précipitation Vent Pression Humidité
    00:00 +6°C° 1 mm 5 m/s 733 mmHg 93%
    01:00 +6°C° 1 mm 5 m/s 733 mmHg 93%
    02:00 +6°C° 1 mm 5 m/s 733 mmHg 92%
    03:00 +5°C° 0.7 mm 6 m/s 733 mmHg 91%
    04:00 +5°C° 0.7 mm 6 m/s 734 mmHg 91%
    05:00 +5°C° 0.7 mm 6 m/s 734 mmHg 90%
    06:00 +5°C° 0.3 mm 6 m/s 735 mmHg 88%
    07:00 +5°C° 0.3 mm 6 m/s 736 mmHg 87%
    08:00 +5°C° 0.3 mm 7 m/s 736 mmHg 85%
    09:00 +5°C° 0.1 mm 7 m/s 737 mmHg 81%
    10:00 +6°C° 0.1 mm 7 m/s 738 mmHg 76%
    11:00 +8°C° 0.1 mm 7 m/s 739 mmHg 72%
    12:00 +8°C° 0.1 mm 7 m/s 740 mmHg 69%
    13:00 +8°C° 0.1 mm 7 m/s 740 mmHg 66%
    14:00 +9°C° 0.1 mm 7 m/s 741 mmHg 63%
    15:00 +8°C° 0 mm 6 m/s 742 mmHg 66%
    16:00 +7°C° 0 mm 6 m/s 743 mmHg 70%
    17:00 +6°C° 0 mm 5 m/s 743 mmHg 73%
    18:00 +5°C° 0 mm 5 m/s 744 mmHg 75%
    19:00 +5°C° 0 mm 5 m/s 745 mmHg 77%
    20:00 +3°C° 0 mm 5 m/s 746 mmHg 80%
    21:00 +4°C° 0 mm 4 m/s 747 mmHg 78%
    22:00 +3°C° 0 mm 4 m/s 747 mmHg 76%
    23:00 +1°C° 0 mm 4 m/s 748 mmHg 74%

    Après-demain, 26 Septembre, Mercredi

    Heure Température Précipitation Vent Pression Humidité
    00:00 +1°C° 0 mm 4 m/s 749 mmHg 74%
    01:00 0°C° 0 mm 4 m/s 749 mmHg 75%
    02:00 +1°C° 0 mm 3 m/s 750 mmHg 75%
    03:00 +1°C° 0 mm 3 m/s 750 mmHg 77%
    04:00 0°C° 0 mm 3 m/s 750 mmHg 79%
    05:00 0°C° 0 mm 3 m/s 751 mmHg 81%
    06:00 +1°C° 0 mm 3 m/s 751 mmHg 77%
    07:00 +2°C° 0 mm 3 m/s 751 mmHg 73%
    08:00 +3°C° 0 mm 3 m/s 752 mmHg 69%
    09:00 +5°C° 0 mm 4 m/s 751 mmHg 67%
    10:00 +7°C° 0 mm 4 m/s 751 mmHg 64%
    11:00 +8°C° 0 mm 4 m/s 751 mmHg 62%
    12:00 +10°C° 0 mm 4 m/s 750 mmHg 60%
    13:00 +9°C° 0 mm 5 m/s 749 mmHg 59%
    14:00 +9°C° 0 mm 5 m/s 749 mmHg 58%
    15:00 +9°C° 0.1 mm 5 m/s 748 mmHg 61%
    16:00 +8°C° 0.1 mm 5 m/s 747 mmHg 64%
    17:00 +7°C° 0.1 mm 5 m/s 746 mmHg 68%
    18:00 +7°C° 0.7 mm 6 m/s 745 mmHg 74%
    19:00 +5°C° 0.7 mm 7 m/s 744 mmHg 79%
    20:00 +5°C° 0.7 mm 7 m/s 742 mmHg 85%
    21:00 +4°C° 1.3 mm 7 m/s 741 mmHg 86%
    22:00 +4°C° 1.3 mm 7 m/s 740 mmHg 86%
    23:00 +4°C° 1.3 mm 7 m/s 738 mmHg 87%

    27 Septembre, Jeudi

    Heure Température Précipitation Vent Pression Humidité
    00:00 +4°C° 1 mm 7 m/s 738 mmHg 88%
    01:00 +5°C° 1 mm 6 m/s 737 mmHg 89%
    02:00 +5°C° 1 mm 6 m/s 737 mmHg 90%
    03:00 +6°C° 0.3 mm 5 m/s 737 mmHg 90%
    04:00 +5°C° 0.3 mm 4 m/s 737 mmHg 89%
    05:00 +5°C° 0.3 mm 4 m/s 737 mmHg 89%
    06:00 +5°C° 0 mm 4 m/s 737 mmHg 87%
    07:00 +6°C° 0 mm 5 m/s 738 mmHg 85%
    08:00 +6°C° 0 mm 5 m/s 738 mmHg 83%
    09:00 +7°C° 0.2 mm 5 m/s 738 mmHg 78%
    10:00 +8°C° 0.2 mm 6 m/s 739 mmHg 72%
    11:00 +8°C° 0.2 mm 6 m/s 739 mmHg 67%
    12:00 +9°C° 0.1 mm 6 m/s 739 mmHg 64%
    13:00 +9°C° 0.1 mm 6 m/s 739 mmHg 61%
    14:00 +10°C° 0.1 mm 6 m/s 739 mmHg 58%
    15:00 +9°C° 0 mm 5 m/s 739 mmHg 62%
    16:00 +8°C° 0 mm 4 m/s 739 mmHg 66%
    17:00 +8°C° 0 mm 3 m/s 739 mmHg 70%
    18:00 +7°C° 0 mm 3 m/s 739 mmHg 73%
    19:00 +7°C° 0 mm 3 m/s 739 mmHg 75%
    20:00 +5°C° 0 mm 3 m/s 739 mmHg 78%
    21:00 +6°C° 0 mm 2 m/s 738 mmHg 81%
    22:00 +6°C° 0 mm 2 m/s 738 mmHg 85%
    23:00 +5°C° 0 mm 2 m/s 738 mmHg 88%

    28 Septembre, Vendredi

    Heure Température Précipitation Vent Pression Humidité
    00:00 +6°C° 0.4 mm 2 m/s 737 mmHg 90%
    01:00 +6°C° 0.4 mm 2 m/s 736 mmHg 92%
    02:00 +7°C° 0.4 mm 1 m/s 735 mmHg 95%
    03:00 +7°C° 1.8 mm 1 m/s 734 mmHg 96%
    04:00 +7°C° 1.8 mm 1 m/s 733 mmHg 96%
    05:00 +6°C° 1.8 mm 1 m/s 733 mmHg 97%
    06:00 +6°C° 0.7 mm 2 m/s 733 mmHg 96%
    07:00 +5°C° 0.7 mm 3 m/s 733 mmHg 95%
    08:00 +5°C° 0.7 mm 3 m/s 734 mmHg 94%
    09:00 +5°C° 0.2 mm 4 m/s 735 mmHg 90%
    10:00 +6°C° 0.2 mm 4 m/s 736 mmHg 86%
    11:00 +7°C° 0.2 mm 5 m/s 737 mmHg 82%
    12:00 +7°C° 0.3 mm 5 m/s 738 mmHg 80%
    13:00 +7°C° 0.3 mm 5 m/s 738 mmHg 78%
    14:00 +7°C° 0.3 mm 5 m/s 739 mmHg 76%
    15:00 +7°C° 0.1 mm 4 m/s 739 mmHg 78%
    16:00 +6°C° 0.1 mm 4 m/s 740 mmHg 80%
    17:00 +5°C° 0.1 mm 3 m/s 741 mmHg 81%
    18:00 +4°C° 0 mm 3 m/s 742 mmHg 82%
    19:00 +4°C° 0 mm 3 m/s 742 mmHg 83%
    20:00 +3°C° 0 mm 3 m/s 743 mmHg 83%
    21:00 +3°C° 0 mm 3 m/s 744 mmHg 84%
    22:00 +2°C° 0 mm 3 m/s 744 mmHg 84%
    23:00 +2°C° 0 mm 3 m/s 745 mmHg 85%

    29 Septembre, Samedi

    Heure Température Précipitation Vent Pression Humidité
    00:00 +1°C° 0 mm 3 m/s 745 mmHg 86%
    01:00 +1°C° 0 mm 3 m/s 746 mmHg 88%
    02:00 +1°C° 0 mm 3 m/s 746 mmHg 89%
    03:00 +1°C° 0 mm 3 m/s 747 mmHg 91%
    04:00 0°C° 0 mm 3 m/s 747 mmHg 93%
    05:00 0°C° 0 mm 3 m/s 748 mmHg 94%
    06:00 +1°C° 0 mm 3 m/s 748 mmHg 89%
    07:00 +2°C° 0 mm 3 m/s 749 mmHg 84%
    08:00 +3°C° 0 mm 3 m/s 749 mmHg 79%
    09:00 +4°C° 0 mm 3 m/s 750 mmHg 71%
    10:00 +5°C° 0 mm 3 m/s 750 mmHg 63%
    11:00 +7°C° 0 mm 3 m/s 750 mmHg 55%
    12:00 +6°C° 0 mm 4 m/s 750 mmHg 56%
    13:00 +7°C° 0 mm 4 m/s 750 mmHg 57%
    14:00 +7°C° 0 mm 4 m/s 750 mmHg 57%
    15:00 +6°C° 0.1 mm 4 m/s 750 mmHg 64%
    16:00 +5°C° 0.1 mm 3 m/s 750 mmHg 70%
    17:00 +5°C° 0.1 mm 3 m/s 750 mmHg 76%
    18:00 +4°C° 0 mm 3 m/s 751 mmHg 80%
    19:00 +3°C° 0 mm 3 m/s 752 mmHg 83%
    20:00 +3°C° 0 mm 4 m/s 752 mmHg 87%
    21:00 +2°C° 0 mm 3 m/s 753 mmHg 88%
    22:00 +2°C° 0 mm 3 m/s 753 mmHg 89%
    23:00 +1°C° 0 mm 3 m/s 754 mmHg 90%
    Voir plus

    3.3.7123123